Location: Carnetin
(48.9010°N, 2.7059°E)
Time: 10:47:42
(UTC+00:00)

Cosmos 1626 Rocket - Pass Details

Date: 24 October 2021
Orbit: 603 x 631 km, 82.5° (Epoch: 30 November)

Event Time Altitude Azimuth Distance (km) Brightness Sun altitude
Rises 18:18:46 0° 347° (NNW) 2,871 7.2 -16.5°
Reaches altitude 10° 18:21:00 10° 345° (NNW) 1,961 6.3 -16.8°
Maximum altitude 18:25:17 64° 264° (W) 670 3.9 -17.5°
Drops below altitude 10° 18:29:32 10° 183° (S) 1,946 6.1 -18.2°
Sets 18:31:45 0° 180° (S) 2,846 6.9 -18.6°
